TimeEDT,TemperatureF,Dew PointF,Humidity,Sea Level PressureIn,VisibilityMPH,Wind Direction,Wind SpeedMPH,Gust SpeedMPH,PrecipitationIn,Events,Conditions,WindDirDegrees,DateUTC
12:11 AM,75.2,71.6,89,30.04,10.0,NE,10.4,-,N/A,,Mostly Cloudy,40,2012-10-09 04:11:00
12:31 AM,77.0,71.6,83,30.03,10.0,NNE,10.4,-,N/A,,Mostly Cloudy,20,2012-10-09 04:31:00
12:58 AM,75.0,72.0,90,30.03,10.0,North,13.8,17.3,N/A,,Mostly Cloudy,350,2012-10-09 04:58:00
1:58 AM,73.0,70.0,90,30.03,10.0,NNW,12.7,-,0.00,,Overcast,340,2012-10-09 05:58:00
2:58 AM,72.0,69.1,91,30.01,10.0,NNW,9.2,-,N/A,,Overcast,340,2012-10-09 06:58:00
3:58 AM,72.0,69.1,91,30.01,10.0,NNW,10.4,-,N/A,,Overcast,330,2012-10-09 07:58:00
4:35 AM,71.6,68.0,88,30.02,10.0,NNW,10.4,-,N/A,,Overcast,340,2012-10-09 08:35:00
4:58 AM,71.1,68.0,90,30.02,10.0,NNW,10.4,-,N/A,,Overcast,330,2012-10-09 08:58:00
5:10 AM,69.8,68.0,94,30.02,10.0,NNW,9.2,-,N/A,,Overcast,340,2012-10-09 09:10:00
5:32 AM,69.8,68.0,94,30.02,10.0,NNW,11.5,-,N/A,,Overcast,330,2012-10-09 09:32:00
5:58 AM,70.0,68.0,93,30.03,10.0,NNW,9.2,-,N/A,,Overcast,340,2012-10-09 09:58:00
6:58 AM,69.1,66.9,93,30.04,10.0,NNW,9.2,-,N/A,,Mostly Cloudy,330,2012-10-09 10:58:00
7:58 AM,69.1,66.9,93,30.05,10.0,NW,8.1,-,N/A,,Overcast,320,2012-10-09 11:58:00
8:20 AM,69.8,68.0,94,30.05,10.0,NW,10.4,-,N/A,,Overcast,320,2012-10-09 12:20:00
8:29 AM,69.8,68.0,94,30.06,10.0,NNW,8.1,-,N/A,,Overcast,330,2012-10-09 12:29:00
8:56 AM,71.6,68.0,88,30.07,10.0,NNW,9.2,-,N/A,,Overcast,330,2012-10-09 12:56:00
8:58 AM,71.1,68.0,90,30.07,10.0,NNW,8.1,-,N/A,,Overcast,330,2012-10-09 12:58:00
9:04 AM,71.6,68.0,88,30.07,6.0,NNW,9.2,-,N/A,,Mostly Cloudy,330,2012-10-09 13:04:00
9:58 AM,71.1,68.0,90,30.09,6.0,NNW,9.2,-,N/A,,Mostly Cloudy,340,2012-10-09 13:58:00
10:58 AM,72.0,68.0,87,30.10,6.0,NNW,11.5,-,N/A,,Overcast,340,2012-10-09 14:58:00
11:58 AM,71.1,66.9,87,30.10,6.0,NNW,15.0,-,N/A,,Overcast,340,2012-10-09 15:58:00
12:58 PM,71.1,66.9,87,30.09,3.0,North,12.7,-,N/A,,Overcast,350,2012-10-09 16:58:00
1:58 PM,73.9,66.9,79,30.08,4.0,North,13.8,-,N/A,,Haze,10,2012-10-09 17:58:00
2:49 PM,73.4,66.2,78,30.07,4.0,NNE,10.4,-,N/A,,Haze,20,2012-10-09 18:49:00
2:58 PM,73.9,66.9,79,30.07,4.0,North,13.8,-,N/A,,Haze,360,2012-10-09 18:58:00
3:58 PM,73.9,66.9,79,30.06,4.0,North,10.4,-,N/A,,Haze,360,2012-10-09 19:58:00
4:58 PM,73.0,66.0,79,30.06,5.0,North,13.8,-,N/A,,Haze,10,2012-10-09 20:58:00
5:58 PM,73.0,64.9,76,30.06,5.0,NNE,11.5,-,N/A,,Haze,20,2012-10-09 21:58:00
6:02 PM,73.4,64.4,73,30.06,10.0,NNE,12.7,-,N/A,,Overcast,20,2012-10-09 22:02:00
6:07 PM,73.4,64.4,73,30.06,10.0,NNE,9.2,-,N/A,,Overcast,20,2012-10-09 22:07:00
6:58 PM,72.0,64.0,76,30.07,5.0,NE,10.4,-,N/A,,Haze,40,2012-10-09 22:58:00
7:53 PM,71.6,62.6,73,30.07,10.0,NE,9.2,-,N/A,,Overcast,40,2012-10-09 23:53:00
7:58 PM,72.0,64.0,76,30.07,10.0,NE,6.9,-,N/A,,Overcast,40,2012-10-09 23:58:00
8:54 PM,71.6,62.6,73,30.09,10.0,NNE,6.9,-,N/A,,Scattered Clouds,30,2012-10-10 00:54:00
8:58 PM,71.1,63.0,75,30.09,10.0,NNE,8.1,-,N/A,,Scattered Clouds,30,2012-10-10 00:58:00
9:33 PM,68.0,64.4,88,30.10,10.0,NW,8.1,-,N/A,,Mostly Cloudy,320,2012-10-10 01:33:00
9:39 PM,66.2,64.4,94,30.10,10.0,NW,8.1,-,N/A,,Scattered Clouds,320,2012-10-10 01:39:00
9:46 PM,66.2,64.4,94,30.10,10.0,NW,6.9,-,N/A,,Mostly Cloudy,320,2012-10-10 01:46:00
9:58 PM,66.9,64.0,90,30.10,10.0,NW,8.1,-,N/A,,Scattered Clouds,320,2012-10-10 01:58:00
10:58 PM,66.0,63.0,90,30.11,9.0,WNW,4.6,-,N/A,,Clear,300,2012-10-10 02:58:00
11:58 PM,64.9,63.0,93,30.11,8.0,WNW,3.5,-,N/A,,Clear,290,2012-10-10 03:58:00